Spearfish, SD

4:01 PM MDT on May 26, 2017 (GMT -0600)
Black Hills-Ice

Weather History for KSPF - October, 2012

Change the Weather History Date:

Wednesday, October 24, 2012

  Actual Average (KEFC) Record (KEFC)
Temperature  
Mean Temperature 32 °F -  
Max Temperature 37 °F 62 °F 83 °F (1978)
Min Temperature 28 °F 30 °F 14 °F (1980)
Degree Days  
Heating Degree Days 32    
Moisture  
Dew Point 31 °F    
Average Humidity 95    
Maximum Humidity 100    
Minimum Humidity 86    
Precipitation  
Precipitation 3.85 in - - ()
Sea Level Pressure  
Sea Level Pressure 30.00 in    
Wind  
Wind Speed 5 mph (WNW)    
Max Wind Speed 12 mph    
Max Gust Speed -    
Visibility 6 miles    
Events Rain , Snow    
Averages and records for this station are not official NWS values.
T = Trace of Precipitation, MM = Missing Value Source: NWS Daily Summary

Daily Weather History Graph

Daily Weather History Graph

Search for Another Location

Airport or City:

Trip Planner

Search our weather history database for the weather conditions in past years. The results will help you decide how hot, cold, wet, or windy it might be!

Date:

Astronomy

Oct. 24, 2012 Rise Set
Actual Time 8:22 AM CDT 6:55 PM CDT
Civil Twilight 7:52 AM CDT 7:24 PM CDT
Nautical Twilight 7:18 AM CDT 7:58 PM CDT
Astronomical Twilight 6:45 AM CDT 8:32 PM CDT
Moon 4:21 PM CDT (10/24) 3:09 AM CDT (10/24)
Length of Visible Light 11h 32m
Length of Day
10h 32m
Waxing Gibbous, 76% of the Moon is Illuminated
Oct 24
Waxing Gibbous
Oct 29
Full
Nov 6
Last Quarter
Nov 13
New
Nov 20
First Quarter

Hourly Weather History & Observations

Time (CDT) Temp. Windchill Dew Point Humidity Pressure Visibility Wind Dir Wind Speed Gust Speed Precip Events Conditions
12:15 AM 37.4 °F 34.9 °F 33.8 °F 87% 29.90 in 10.0 mi West 3.5 mph - N/A   Overcast
12:35 AM 37.4 °F - 35.6 °F 93% 29.90 in 10.0 mi Calm Calm - N/A   Overcast
12:55 AM 37.4 °F - 33.8 °F 87% 29.89 in 10.0 mi Calm Calm - N/A   Overcast
1:35 AM 37.4 °F 34.9 °F 35.6 °F 93% 29.90 in 10.0 mi ESE 3.5 mph - N/A   Overcast
1:55 AM 37.4 °F - 35.6 °F 93% 29.90 in 10.0 mi Calm Calm - N/A   Overcast
2:15 AM 37.4 °F - 35.6 °F 93% 29.91 in 10.0 mi Calm Calm - N/A   Mostly Cloudy
2:35 AM 37.4 °F 33.8 °F 35.6 °F 93% 29.91 in 10.0 mi East 4.6 mph - N/A   Mostly Cloudy
2:55 AM 37.4 °F 34.9 °F 35.6 °F 93% 29.92 in 10.0 mi East 3.5 mph - N/A   Mostly Cloudy
3:15 AM 37.4 °F 34.9 °F 35.6 °F 93% 29.91 in 10.0 mi ESE 3.5 mph - N/A   Mostly Cloudy
3:35 AM 37.4 °F 32.8 °F 35.6 °F 93% 29.91 in 10.0 mi SE 5.8 mph - N/A   Overcast
3:55 AM 37.4 °F 32.8 °F 35.6 °F 93% 29.92 in 10.0 mi ESE 5.8 mph - N/A   Overcast
4:15 AM 37.4 °F - 35.6 °F 93% 29.92 in 10.0 mi Calm Calm - N/A   Overcast
4:35 AM 37.4 °F - 37.4 °F 100% 29.93 in 10.0 mi Calm Calm - N/A   Overcast
4:55 AM 37.4 °F 32.8 °F 35.6 °F 93% 29.91 in 10.0 mi East 5.8 mph - N/A   Overcast
5:15 AM 37.4 °F - 35.6 °F 93% 29.92 in 10.0 mi Calm Calm - N/A   Overcast
5:35 AM 37.4 °F - 37.4 °F 100% 29.92 in 10.0 mi Calm Calm - N/A   Overcast
5:55 AM 37.4 °F - 37.4 °F 100% 29.92 in 10.0 mi Calm Calm - N/A   Overcast
6:15 AM 37.4 °F 32.8 °F 37.4 °F 100% 29.93 in 10.0 mi NNW 5.8 mph - N/A   Overcast
6:35 AM 37.4 °F 32.8 °F 35.6 °F 93% 29.94 in 5.0 mi WNW 5.8 mph - N/A Rain Light Rain
6:55 AM 35.6 °F 29.2 °F 35.6 °F 100% 29.95 in 0.2 mi WNW 8.1 mph - 0.01 in Rain Light Rain
7:15 AM 35.6 °F 28.6 °F 35.6 °F 100% 29.96 in 0.2 mi WNW 9.2 mph - 0.01 in Rain Light Rain
8:15 AM 32.0 °F 25.6 °F 32.0 °F 100% 29.98 in 2.0 mi WNW 6.9 mph - 0.20 in Snow Light Snow
8:35 AM 32.0 °F 24.2 °F 32.0 °F 100% 29.99 in 1.0 mi NW 9.2 mph - 0.47 in Snow Light Snow
8:55 AM 32.0 °F 24.2 °F 32.0 °F 100% 29.99 in 1.0 mi WNW 9.2 mph - 0.84 in Snow Light Snow
9:15 AM 32.0 °F 24.8 °F 32.0 °F 100% 30.00 in 0.8 mi NW 8.1 mph - 0.20 in Snow Light Snow
9:35 AM 32.0 °F 26.4 °F 30.2 °F 93% 30.01 in 1.0 mi WNW 5.8 mph - 0.49 in Snow Light Snow
10:15 AM 32.0 °F 26.4 °F 32.0 °F 100% 30.01 in 1.0 mi WNW 5.8 mph - 0.13 in Snow Light Snow
10:35 AM 32.0 °F 25.6 °F 30.2 °F 93% 30.02 in 1.0 mi NW 6.9 mph - 0.27 in Snow Light Snow
10:55 AM 32.0 °F 26.4 °F 30.2 °F 93% 30.02 in 1.2 mi NW 5.8 mph - 0.37 in Snow Light Snow
11:15 AM 30.2 °F 21.3 °F 30.2 °F 100% 30.02 in 1.8 mi NW 10.4 mph - 0.01 in   Clear
11:35 AM 30.2 °F 22.6 °F 30.2 °F 100% 30.02 in 1.5 mi NW 8.1 mph - 0.04 in Snow Light Snow
11:55 AM 30.2 °F 23.4 °F 30.2 °F 100% 30.03 in 1.0 mi NW 6.9 mph - 0.10 in Snow Light Snow
12:15 PM 30.2 °F 22.6 °F 28.4 °F 93% 30.03 in 0.8 mi NW 8.1 mph - 0.09 in Snow Light Snow
12:35 PM 30.2 °F 23.4 °F 30.2 °F 100% 30.02 in 2.0 mi WNW 6.9 mph - 0.17 in Snow Light Snow
12:55 PM 30.2 °F 25.4 °F 30.2 °F 100% 30.02 in 2.5 mi WNW 4.6 mph - 0.21 in Snow Light Snow
1:15 PM 30.2 °F 24.3 °F 28.4 °F 93% 30.01 in 1.2 mi West 5.8 mph - 0.07 in Snow Light Snow
1:55 PM 30.2 °F 23.4 °F 28.4 °F 93% 30.02 in 1.0 mi WNW 6.9 mph - 0.32 in Snow Light Snow
2:15 PM 30.2 °F 22.6 °F 28.4 °F 93% 30.01 in 0.8 mi NW 8.1 mph - 0.12 in Snow Light Snow
2:35 PM 28.4 °F 18.5 °F 28.4 °F 100% 30.01 in 0.5 mi NW 11.5 mph - 0.36 in Snow Snow
2:55 PM 28.4 °F 20.4 °F 28.4 °F 100% 30.01 in 0.8 mi NW 8.1 mph - 0.55 in Snow Light Snow
3:15 PM 28.4 °F 19.7 °F 28.4 °F 100% 30.01 in 1.0 mi WNW 9.2 mph - 0.12 in Snow Light Snow
3:35 PM 30.2 °F 22.6 °F 28.4 °F 93% 30.01 in 1.5 mi West 8.1 mph - 0.23 in Snow Light Snow
3:55 PM 28.4 °F 20.4 °F 28.4 °F 100% 30.02 in 1.2 mi WNW 8.1 mph - 0.34 in Snow Light Snow
4:15 PM 28.4 °F 19.7 °F 28.4 °F 100% 30.02 in 1.0 mi West 9.2 mph - 0.12 in Snow Light Snow
4:35 PM 28.4 °F 20.4 °F 28.4 °F 100% 30.02 in 1.2 mi West 8.1 mph - 0.27 in Snow Light Snow
4:55 PM 28.4 °F 19.1 °F 28.4 °F 100% 30.02 in 1.5 mi West 10.4 mph - 0.39 in Snow Light Snow
5:15 PM 28.4 °F 20.4 °F 28.4 °F 100% 30.04 in 1.5 mi West 8.1 mph - 0.06 in Snow Light Snow
5:35 PM 28.4 °F 21.2 °F 28.4 °F 100% 30.04 in 1.2 mi West 6.9 mph - 0.19 in Snow Light Snow
5:55 PM 28.4 °F 21.2 °F 28.4 °F 100% 30.04 in 4.0 mi West 6.9 mph - 0.22 in Snow Light Snow
6:15 PM 30.2 °F 22.6 °F 28.4 °F 93% 30.04 in 9.0 mi WSW 8.1 mph - N/A Snow Light Snow
6:55 PM 30.2 °F 23.4 °F 26.6 °F 86% 30.06 in 10.0 mi West 6.9 mph - N/A   Scattered Clouds
7:15 PM 30.2 °F 21.9 °F 26.6 °F 86% 30.06 in 10.0 mi WNW 9.2 mph - N/A   Overcast
7:35 PM 30.2 °F 22.6 °F 26.6 °F 86% 30.06 in 10.0 mi WNW 8.1 mph - N/A   Overcast
7:55 PM 30.2 °F 21.9 °F 26.6 °F 86% 30.06 in 10.0 mi WNW 9.2 mph - N/A   Overcast
8:15 PM 30.2 °F 23.4 °F 26.6 °F 86% 30.07 in 10.0 mi West 6.9 mph - N/A   Overcast
8:35 PM 28.4 °F 23.3 °F 26.6 °F 93% 30.08 in 10.0 mi West 4.6 mph - N/A   Scattered Clouds
8:55 PM 28.4 °F 22.2 °F 26.6 °F 93% 30.09 in 10.0 mi West 5.8 mph - N/A   Scattered Clouds
9:15 PM 28.4 °F 20.4 °F 26.6 °F 93% 30.09 in 10.0 mi West 8.1 mph - N/A   Scattered Clouds
9:35 PM 28.4 °F 21.2 °F 26.6 °F 93% 30.09 in 10.0 mi West 6.9 mph - N/A   Scattered Clouds
9:55 PM 28.4 °F 21.2 °F 26.6 °F 93% 30.09 in 10.0 mi West 6.9 mph - N/A   Mostly Cloudy
10:15 PM 28.4 °F 19.7 °F 26.6 °F 93% 30.08 in 10.0 mi West 9.2 mph - N/A   Overcast
10:35 PM 30.2 °F 22.6 °F 26.6 °F 86% 30.09 in 10.0 mi West 8.1 mph - N/A   Overcast
11:15 PM 30.2 °F 21.3 °F 26.6 °F 86% 30.10 in 10.0 mi West 10.4 mph - N/A   Overcast
11:55 PM 30.2 °F 22.6 °F 26.6 °F 86% 30.10 in 10.0 mi WNW 8.1 mph - N/A   Overcast